1487440800.49,59441,12.13,73344.5,-11.45,-12.89,-13.11,0,*6C
1487440801.72,59442,12.13,73344.3,-11.47,-12.89,-13.15,0,*69
1487440802.93,59443,12.13,73344.8,-11.45,-12.89,-13.11,0,*6E
1487440804.14,59444,12.13,73346.0,-11.45,-12.89,-13.11,0,*69
1487440805.38,59445,12.19,73350.0,-11.45,-12.89,-13.01,0,*69
1487440806.62,59446,12.13,73344.3,-11.45,-12.75,-13.11,0,*68
1487440807.83,59447,12.13,73346.0,-11.45,-12.89,-13.11,0,*6A
1487440809.06,59448,12.13,73350.3,-11.45,-12.83,-13.11,0,*6F
1487440810.3,59449,12.13,73346.5,-11.45,-12.83,-13.11,0,*6E
1487440811.53,59450,12.13,73344.8,-11.45,-12.83,-13.11,0,*66
1487440812.79,59451,12.19,73350.5,-11.45,-12.75,-13.01,0,*6F
1487440814.03,59452,12.19,73350.8,-11.45,-12.83,-13.11,0,*64
1487440815.26,59453,12.13,73350.8,-11.45,-12.83,-13.11,0,*65
1487440816.5,59454,12.13,73350.5,-11.45,-12.75,-13.11,0,*6B
1487440817.72,59455,12.13,73346.8,-11.45,-12.97,-13.23,0,*67
1487440818.97,59456,12.13,73346.3,-11.47,-13.15,-13.37,0,*68
1487440820.24,59457,12.19,73348.5,-11.47,-13.07,-13.33,0,*6E
1487440821.5,59458,12.13,73344.5,-11.47,-13.07,-13.37,0,*65
1487440822.71,59459,12.19,73348.5,-11.45,-12.97,-13.47,0,*69
1487440823.92,59460,12.13,73346.0,-11.45,-12.97,-13.43,0,*67
1487440825.18,59461,12.13,73350.8,-11.47,-13.07,-13.33,0,*6B
1487440826.42,59462,12.19,73350.8,-11.45,-12.97,-13.29,0,*69
1487440827.69,59463,12.13,73346.0,-11.47,-12.93,-13.29,0,*6E
1487440828.89,59464,12.13,73346.0,-11.45,-13.11,-13.43,0,*6C
1487440830.16,59465,12.13,73344.0,-11.45,-13.01,-13.33,0,*6B
1487440831.39,59466,12.13,73344.5,-11.45,-13.01,-13.47,0,*6B
1487440832.6,59467,12.13,73346.3,-11.45,-13.11,-13.55,0,*68
1487440833.81,59468,12.13,73346.3,-11.45,-13.11,-13.55,0,*67
1487440835.05,59469,12.13,73344.5,-11.43,-13.11,-13.55,0,*60
1487440836.26,59470,12.19,73348.5,-11.45,-13.11,-13.43,0,*69
1487440837.46,59471,12.13,73346.3,-11.45,-13.11,-13.47,0,*6C
1487440838.7,59472,12.13,73346.8,-11.45,-13.01,-13.43,0,*6A
1487440839.91,59473,12.13,73348.0,-11.45,-13.11,-13.55,0,*6D
1487440841.14,59474,12.13,73346.8,-11.47,-13.15,-13.51,0,*68
1487440842.38,59475,12.13,73348.3,-11.45,-13.01,-13.43,0,*6D
1487440843.59,59476,12.13,73350.5,-11.45,-13.11,-13.43,0,*6F
1487440844.82,59477,12.19,73348.8,-11.45,-13.11,-13.33,0,*69
1487440846.06,59478,12.13,73350.3,-11.45,-13.11,-13.33,0,*66
1487440847.27,59479,12.13,73350.5,-11.45,-13.11,-13.43,0,*60
1487440848.5,59480,12.19,73350.5,-11.45,-13.01,-13.47,0,*63
1487440849.73,59481,12.13,73348.3,-11.47,-13.07,-13.47,0,*66
1487440850.94,59482,12.13,73350.3,-11.45,-13.11,-13.47,0,*60
1487440852.14,59483,12.13,73350.3,-11.45,-13.15,-13.43,0,*61
1487440853.36,59484,12.13,73348.5,-11.45,-13.11,-13.23,0,*64
1487440854.59,59485,12.13,73346.3,-11.45,-13.01,-13.15,0,*61
1487440855.8,59486,12.13,73346.8,-11.45,-12.97,-13.15,0,*6C
1487440857.04,59487,12.13,73344.0,-11.43,-12.89,-13.15,0,*64
1487440858.31,59488,12.13,73342.3,-11.47,-13.01,-13.19,0,*62
1487440859.52,59489,12.13,73346.5,-11.45,-12.97,-13.15,0,*63
1487440860.73,59490,12.13,73344.5,-11.45,-12.89,-13.15,0,*64
1487440861.97,59491,12.19,73348.0,-11.45,-13.01,-13.23,0,*61
1487440863.2,59492,12.19,73348.0,-11.45,-13.01,-13.15,0,*67
1487440864.41,59493,12.13,73346.8,-11.45,-12.89,-13.11,0,*63
1487440865.68,59494,12.13,73346.8,-11.45,-12.75,-13.01,0,*66
1487440866.91,59495,12.13,73340.0,-11.45,-12.83,-12.97,0,*60
1487440868.13,59496,12.13,73342.3,-11.45,-12.89,-12.97,0,*69
1487440869.36,59497,12.19,73346.0,-11.45,-12.89,-13.01,0,*66
1487440870.6,59498,12.13,73344.5,-11.47,-12.89,-13.07,0,*6D
1487440871.84,59499,12.13,73346.8,-11.45,-12.75,-12.97,0,*65
1487440873.07,59500,12.13,73346.0,-11.45,-12.83,-12.89,0,*62
1487440874.31,59501,12.13,73344.8,-11.45,-12.83,-12.97,0,*6C
1487440875.55,59502,12.13,73346.3,-11.45,-12.83,-12.97,0,*6F
1487440876.79,59503,12.13,73346.5,-11.45,-12.75,-12.89,0,*68
1487440878.06,59504,12.13,73344.5,-11.47,-12.79,-12.93,0,*6A
1487440879.3,59505,12.13,73346.3,-11.45,-12.75,-12.89,0,*6E
1487440880.53,59506,12.19,73352.3,-11.45,-12.83,-12.97,0,*6B
1487440881.8,59507,12.13,73348.3,-11.45,-12.75,-12.83,0,*66
1487440883.04,59508,12.13,73344.5,-11.45,-12.83,-12.97,0,*65
1487440884.3,59509,12.13,73344.5,-11.43,-12.83,-12.89,0,*6D
1487440885.56,59510,12.13,73344.5,-11.47,-12.89,-13.01,0,*6A
1487440886.8,59511,12.13,73348.5,-11.45,-12.75,-12.97,0,*64
1487440888.07,59512,12.13,73348.3,-11.47,-12.75,-12.93,0,*61
1487440889.34,59513,12.13,73348.8,-11.47,-12.65,-12.93,0,*61
1487440890.58,59514,12.13,73348.0,-11.45,-12.75,-12.97,0,*61
1487440891.84,59515,12.13,73346.3,-11.47,-12.79,-12.89,0,*61
1487440893.08,59516,12.13,73346.3,-11.45,-12.71,-12.89,0,*68
1487440894.33,59517,12.13,73344.5,-11.45,-12.75,-12.97,0,*62
1487440895.59,59518,12.19,73350.3,-11.47,-12.89,-13.01,0,*62
1487440896.82,59519,12.13,73344.8,-11.45,-12.83,-12.97,0,*65
1487440898.06,59520,12.13,73350.5,-11.47,-12.89,-12.97,0,*67
1487440899.31,59521,12.19,73350.0,-11.45,-12.75,-12.89,0,*68
1487440900.54,59522,12.13,73346.5,-11.47,-12.89,-13.07,0,*6D
1487440901.81,59523,12.13,73344.3,-11.47,-12.79,-12.93,0,*6F
1487440903.05,59524,12.13,73348.3,-11.45,-12.83,-12.89,0,*64
1487440904.28,59525,12.13,73348.0,-11.45,-12.83,-12.97,0,*6A
1487440905.55,59526,12.13,73350.5,-11.43,-12.75,-12.89,0,*69
1487440906.81,59527,12.13,73348.0,-11.47,-12.89,-13.01,0,*6E
1487440908.07,59528,12.13,73350.3,-11.47,-12.79,-12.93,0,*64
1487440909.36,59529,12.13,73352.0,-11.47,-12.79,-13.01,0,*6F
1487440910.6,59530,12.19,73352.5,-11.45,-12.75,-12.89,0,*68
1487440911.87,59531,12.13,73348.5,-11.47,-12.79,-12.93,0,*6C
1487440913.11,59532,12.13,73352.3,-11.45,-12.83,-12.97,0,*6C
1487440914.39,59533,12.13,73354.3,-11.47,-12.79,-13.01,0,*64
1487440915.68,59534,12.13,73354.8,-11.47,-12.79,-13.01,0,*63
1487440916.92,59535,12.13,73354.8,-11.47,-12.89,-12.97,0,*63
1487440918.2,59536,12.19,73354.8,-11.47,-12.79,-13.01,0,*61
1487440919.46,59537,12.13,73354.8,-11.47,-12.89,-13.01,0,*6F
1487440920.7,59538,12.13,73350.0,-11.45,-12.83,-12.89,0,*69
1487440921.93,59539,12.13,73348.3,-11.45,-12.83,-12.89,0,*68
1487440923.18,59540,12.13,73350.3,-11.45,-12.75,-12.97,0,*60
1487440924.45,59541,12.13,73348.0,-11.47,-12.75,-12.93,0,*67
1487440925.71,59542,12.13,73346.0,-11.47,-12.79,-12.93,0,*68
1487440926.95,59543,12.13,73344.0,-11.45,-12.79,-12.89,0,*60
1487440928.24,59544,12.13,73346.5,-11.47,-12.79,-13.01,0,*64
1487440929.48,59545,12.13,73346.8,-11.45,-12.83,-12.97,0,*6C
1487440930.72,59546,12.13,73348.3,-11.45,-12.75,-12.89,0,*69
1487440931.98,59547,12.13,73346.8,-11.47,-12.89,-13.01,0,*68
1487440933.21,59548,12.13,73346.8,-11.45,-12.83,-12.89,0,*6E
1487440934.48,59549,12.13,73348.3,-11.47,-12.93,-13.01,0,*6D
1487440935.72,59550,12.13,73348.8,-11.45,-12.75,-12.89,0,*6E
1487440936.99,59551,12.13,73350.0,-11.47,-12.79,-12.93,0,*6A
1487440938.23,59552,12.13,73350.8,-11.45,-12.71,-12.89,0,*68
1487440939.5,59553,12.13,73348.3,-11.47,-12.75,-12.93,0,*64
1487440940.74,59554,12.13,73344.5,-11.45,-12.71,-12.89,0,*6E
1487440941.98,59555,12.19,73350.0,-11.45,-12.71,-12.89,0,*6F
1487440943.25,59556,12.13,73344.8,-11.47,-12.75,-12.89,0,*6A
1487440944.54,59557,12.13,73348.0,-11.47,-12.65,-12.79,0,*65
1487440945.81,59558,12.19,73350.5,-11.47,-12.75,-12.89,0,*64
1487440947.07,59559,12.13,73344.5,-11.47,-12.65,-12.89,0,*64
1487440948.34,59560,12.19,73350.8,-11.45,-12.71,-12.83,0,*63
1487440949.6,59561,12.13,73344.0,-11.47,-12.65,-12.89,0,*6F
1487440950.87,59562,12.13,73346.0,-11.45,-12.75,-12.83,0,*65
1487440952.14,59563,12.13,73344.5,-11.47,-12.79,-12.93,0,*6B
1487440953.4,59564,12.13,73348.3,-11.45,-12.71,-12.83,0,*67
1487440954.66,59565,12.13,73344.8,-11.45,-12.61,-12.83,0,*67
1487440955.92,59566,12.13,73344.5,-11.45,-12.61,-12.83,0,*64
1487440957.19,59567,12.13,73344.8,-11.47,-12.79,-12.93,0,*6F
1487440958.46,59568,12.13,73344.8,-11.47,-12.75,-12.89,0,*67
1487440959.7,59569,12.13,73346.0,-11.45,-12.71,-12.89,0,*60
1487440960.99,59570,12.13,73348.8,-11.47,-12.65,-12.79,0,*60
1487440962.26,59571,12.13,73348.5,-11.45,-12.75,-12.83,0,*67
1487440963.53,59572,12.13,73348.8,-11.47,-12.75,-12.89,0,*6C
1487440964.79,59573,12.13,73346.0,-11.47,-12.75,-12.93,0,*66
1487440966.07,59574,12.13,73350.0,-11.47,-12.75,-12.89,0,*6A
1487440967.31,59575,12.19,73348.3,-11.47,-12.89,-12.89,0,*68
1487440968.55,59576,12.13,73346.0,-11.45,-12.75,-12.89,0,*6A
1487440969.82,59577,12.13,73346.3,-11.47,-12.75,-12.89,0,*69
1487440971.06,59578,12.13,73348.8,-11.45,-12.75,-12.89,0,*64
1487440972.33,59579,12.13,73348.8,-11.47,-12.75,-12.93,0,*6C
1487440973.6,59580,12.13,73350.8,-11.47,-12.75,-12.89,0,*61
1487440974.87,59581,12.13,73348.0,-11.47,-12.75,-12.93,0,*6B
1487440976.13,59582,12.13,73346.3,-11.47,-12.89,-13.01,0,*61
1487440977.37,59583,12.13,73342.0,-11.47,-12.93,-13.07,0,*6D
1487440978.62,59584,12.13,73344.8,-11.45,-12.83,-13.01,0,*6F
1487440979.89,59585,12.13,73346.8,-11.47,-12.79,-12.93,0,*63
1487440981.16,59586,12.13,73344.3,-11.47,-12.75,-12.89,0,*67
1487440982.4,59587,12.13,73346.5,-11.45,-12.71,-12.89,0,*60
1487440983.64,59588,12.13,73346.8,-11.45,-12.75,-12.89,0,*6B
1487440984.91,59589,12.13,73346.5,-11.47,-12.79,-12.93,0,*6F
1487440986.2,59590,12.13,73348.8,-11.47,-12.65,-12.79,0,*6E
1487440987.5,59591,12.13,73348.3,-11.47,-12.75,-12.79,0,*6E
1487440988.76,59592,12.13,73348.0,-11.47,-12.65,-12.93,0,*68
1487440990.03,59593,12.13,73348.8,-11.47,-12.79,-12.93,0,*64
1487440991.29,59594,12.13,73348.8,-11.47,-12.89,-13.01,0,*66
1487440992.55,59595,12.13,73346.3,-11.47,-12.79,-13.15,0,*6D
1487440993.8,59596,12.13,73346.0,-11.47,-12.93,-12.93,0,*65
1487440995.08,59597,12.13,73348.3,-11.47,-12.79,-13.01,0,*6A
1487440996.32,59598,12.13,73348.0,-11.45,-12.75,-12.89,0,*6A
1487440997.59,59599,12.13,73348.5,-11.47,-12.79,-12.93,0,*6E
1487440998.85,59600,12.13,73344.8,-11.47,-12.89,-13.01,0,*68
1487441000.14,59601,12.13,73348.5,-11.47,-12.79,-12.79,0,*68
1487441001.38,59602,12.13,73346.8,-11.49,-12.79,-12.93,0,*61
1487441002.62,59603,12.13,73348.0,-11.47,-12.89,-12.93,0,*61
1487441003.89,59604,12.13,73348.0,-11.49,-12.79,-12.79,0,*63
1487441005.13,59605,12.13,73346.3,-11.49,-12.75,-12.93,0,*6A
1487441006.42,59606,12.13,73344.5,-11.47,-12.79,-13.01,0,*61
1487441007.69,59607,12.13,73344.0,-11.47,-12.79,-12.93,0,*6A
1487441008.93,59608,12.13,73348.5,-11.47,-12.89,-12.89,0,*61
1487441010.19,59609,12.13,73348.5,-11.49,-12.65,-12.79,0,*63
1487441011.43,59610,12.13,73350.0,-11.49,-12.75,-12.89,0,*65
1487441012.67,59611,12.13,73350.0,-11.49,-12.79,-12.93,0,*63
1487441013.94,59612,12.13,73344.8,-11.49,-12.65,-12.79,0,*69
1487441015.23,59613,12.13,73346.8,-11.47,-12.65,-12.75,0,*6A
1487441016.5,59614,12.13,73350.5,-11.47,-12.79,-12.89,0,*63
1487441017.74,59615,12.13,73346.0,-11.49,-12.75,-12.89,0,*60
1487441019.04,59616,12.13,73346.8,-11.47,-12.75,-12.79,0,*62
1487441020.28,59617,12.13,73346.5,-11.49,-12.65,-12.89,0,*63
1487441021.54,59618,12.13,73344.0,-11.49,-12.65,-12.79,0,*63
1487441022.81,59619,12.13,73348.8,-11.49,-12.75,-12.79,0,*63
1487441024.11,59620,12.13,73342.5,-11.47,-12.75,-12.79,0,*67
1487441025.37,59621,12.13,73344.5,-11.47,-12.65,-12.93,0,*63
1487441026.67,59622,12.13,73346.3,-11.47,-12.65,-12.79,0,*64
1487441027.93,59623,12.13,73346.3,-11.47,-12.65,-12.89,0,*6A
1487441029.22,59624,12.13,73342.3,-11.47,-12.65,-12.79,0,*62
1487441030.49,59625,12.19,73350.8,-11.47,-12.75,-12.89,0,*6D
1487441031.74,59626,12.13,73344.5,-11.49,-12.75,-12.89,0,*60
1487441032.98,59627,12.13,73344.3,-11.49,-12.75,-12.89,0,*61
1487441034.24,59628,12.13,73348.5,-11.51,-12.83,-12.97,0,*61
1487441035.47,59629,12.13,73344.0,-11.51,-12.93,-13.07,0,*69
1487441036.71,59630,12.13,73344.8,-11.47,-12.89,-13.07,0,*6D
1487441037.94,59631,12.13,73346.5,-11.49,-12.79,-13.15,0,*6E
1487441039.2,59632,12.13,73342.3,-11.51,-12.83,-13.11,0,*65
1487441040.44,59633,12.13,73346.0,-11.47,-12.89,-13.07,0,*6E
1487441041.65,59634,12.13,73344.3,-11.49,-12.89,-13.15,0,*64
1487441042.93,59635,12.13,73348.5,-11.47,-12.79,-13.01,0,*61
1487441044.14,59636,12.13,73346.5,-11.49,-12.93,-13.07,0,*6E
1487441045.35,59637,12.13,73350.3,-11.49,-12.89,-13.07,0,*64
1487441046.61,59638,12.13,73344.8,-11.49,-12.79,-13.01,0,*62
1487441047.83,59639,12.13,73346.5,-11.49,-12.89,-12.93,0,*66
1487441049.09,59640,12.13,73344.3,-11.47,-12.79,-12.93,0,*69
1487441050.34,59641,12.13,73348.5,-11.45,-12.75,-12.89,0,*6D
1487441051.55,59642,12.13,73344.8,-11.49,-12.93,-12.93,0,*61
1487441052.79,59643,12.13,73344.3,-11.51,-12.97,-13.07,0,*61
1487441054.02,59644,12.13,73346.0,-11.49,-12.89,-13.01,0,*66
1487441055.29,59645,12.13,73346.0,-11.47,-12.79,-12.93,0,*6C
1487441056.53,59646,12.13,73346.5,-11.47,-12.89,-12.89,0,*6B
1487441057.8,59647,12.13,73344.5,-11.49,-12.75,-12.79,0,*68
1487441059.01,59648,12.13,73340.8,-11.49,-12.89,-12.89,0,*6B
1487441060.25,59649,12.13,73344.5,-11.45,-12.75,-12.89,0,*65
1487441061.52,59650,12.13,73340.8,-11.51,-12.83,-12.93,0,*6A
1487441062.78,59651,12.13,73346.8,-11.51,-12.83,-12.93,0,*6B
1487441064.04,59652,12.13,73344.0,-11.47,-12.79,-12.93,0,*6A
1487441065.34,59653,12.13,73342.0,-11.47,-12.79,-12.79,0,*6F
1487441066.58,59654,12.13,73346.5,-11.49,-12.79,-12.89,0,*69
1487441067.82,59655,12.13,73344.3,-11.49,-12.75,-12.89,0,*64
1487441069.08,59656,12.13,73344.0,-11.49,-12.75,-13.01,0,*66
1487441070.32,59657,12.13,73340.5,-11.49,-12.79,-12.93,0,*61
1487441071.56,59658,12.13,73340.8,-11.49,-12.75,-12.93,0,*62
1487441072.82,59659,12.13,73344.0,-11.47,-12.89,-13.01,0,*64
1487441074.06,59660,12.13,73344.5,-11.51,-12.93,-12.97,0,*6C
1487441075.3,59661,12.13,73342.8,-11.49,-12.79,-12.93,0,*64
1487441076.57,59662,12.13,73350.3,-11.51,-12.79,-12.89,0,*65
1487441077.84,59663,12.13,73348.8,-11.49,-12.75,-12.79,0,*6E
1487441079.09,59664,12.13,73340.8,-11.49,-12.79,-13.01,0,*6B
1487441080.33,59665,12.13,73342.0,-11.49,-12.79,-12.93,0,*60
1487441081.59,59666,12.13,73346.3,-11.51,-12.83,-12.97,0,*6B
1487441082.85,59667,12.13,73346.8,-11.51,-12.83,-12.97,0,*6A
1487441084.09,59668,12.13,73348.3,-11.49,-12.79,-12.93,0,*6D
1487441085.36,59669,12.13,73346.8,-11.49,-12.79,-12.79,0,*68
1487441086.57,59670,12.13,73346.0,-11.49,-12.93,-13.07,0,*6C
1487441087.81,59671,12.13,73340.8,-11.49,-12.89,-13.01,0,*60
1487441089.02,59672,12.13,73340.5,-11.49,-12.93,-13.07,0,*6E
1487441090.26,59673,12.13,73342.3,-11.51,-12.93,-13.19,0,*69
1487441091.52,59674,12.13,73344.3,-11.51,-12.83,-12.97,0,*68
1487441092.78,59675,12.13,73346.0,-11.51,-12.83,-13.11,0,*66
1487441094.04,59676,12.13,73346.5,-11.51,-12.83,-12.97,0,*6A
1487441095.3,59677,12.13,73344.8,-11.51,-12.83,-12.97,0,*6B
1487441096.56,59678,12.13,73344.0,-11.51,-12.83,-12.97,0,*64
1487441097.82,59679,12.13,73340.8,-11.51,-12.83,-13.07,0,*6D
1487441099.07,59680,12.13,73344.5,-11.51,-12.83,-13.07,0,*6B
1487441100.33,59681,12.13,73344.8,-11.51,-12.83,-13.11,0,*6D
1487441101.57,59682,12.13,73346.8,-11.51,-12.93,-13.07,0,*68
1487441102.83,59683,12.13,73340.5,-11.51,-12.83,-12.97,0,*60
1487441104.08,59684,12.13,73340.3,-11.51,-12.83,-13.07,0,*6F
1487441105.34,59685,12.13,73342.5,-11.49,-12.79,-13.01,0,*64
1487441106.58,59686,12.13,73342.8,-11.49,-12.79,-12.93,0,*6D
1487441107.82,59687,12.13,73344.8,-11.49,-12.65,-12.93,0,*61
1487441109.08,59688,12.13,73348.0,-11.51,-12.79,-12.93,0,*6A
1487441110.35,59689,12.13,73346.3,-11.51,-12.79,-12.93,0,*6B
1487441111.61,59690,12.13,73340.8,-11.51,-12.79,-12.93,0,*63
1487441112.9,59691,12.13,73342.8,-11.51,-12.79,-12.83,0,*63
1487441114.14,59692,12.13,73342.5,-11.51,-12.93,-12.97,0,*61
1487441115.39,59693,12.13,73346.5,-11.51,-12.83,-13.07,0,*69
1487441116.66,59694,12.13,73344.8,-11.51,-12.71,-12.93,0,*6F
1487441117.9,59695,12.13,73342.5,-11.51,-12.93,-13.07,0,*6E
1487441119.12,59696,12.13,73342.3,-11.49,-12.97,-13.19,0,*6F
1487441120.37,59697,12.13,73342.8,-11.51,-12.83,-13.07,0,*6D
1487441121.63,59698,12.13,73346.5,-11.51,-12.83,-12.97,0,*6A
1487441122.87,59699,12.13,73344.8,-11.51,-12.93,-12.97,0,*6A
1487441124.13,59700,12.13,73344.3,-11.51,-12.83,-13.07,0,*62
1487441125.39,59701,12.13,73344.3,-11.51,-12.83,-12.97,0,*6B
1487441126.65,59702,12.13,73346.8,-11.51,-12.71,-12.97,0,*65
1487441127.91,59703,12.13,73346.8,-11.51,-12.79,-13.07,0,*64
1487441129.15,59704,12.13,73352.8,-11.49,-12.79,-12.93,0,*66
1487441130.42,59705,12.13,73348.3,-11.51,-12.79,-12.97,0,*6A
1487441131.66,59706,12.13,73350.5,-11.49,-12.75,-12.93,0,*68
1487441132.91,59707,12.13,73348.0,-11.51,-12.83,-13.07,0,*65
1487441134.15,59708,12.13,73346.5,-11.51,-12.93,-13.07,0,*6B
1487441135.41,59709,12.13,73344.0,-11.51,-12.83,-12.97,0,*63
1487441136.67,59710,12.13,73342.3,-11.51,-12.83,-12.97,0,*6B
1487441137.93,59711,12.13,73342.8,-11.51,-12.83,-12.97,0,*6A
1487441139.19,59712,12.13,73346.5,-11.51,-12.83,-12.97,0,*69
1487441140.45,59713,12.13,73346.5,-11.51,-12.79,-12.97,0,*6D
1487441141.72,59714,12.13,73350.8,-11.51,-12.79,-12.93,0,*6E
1487441142.98,59715,12.13,73350.8,-11.51,-12.71,-12.97,0,*63
1487441144.22,59716,12.13,73344.8,-11.51,-12.93,-13.11,0,*63
1487441145.46,59717,12.13,73348.0,-11.51,-12.93,-13.11,0,*62
1487441146.7,59718,12.13,73344.5,-11.51,-12.93,-13.11,0,*6D
1487441147.96,59719,12.13,73350.5,-11.55,-12.83,-13.07,0,*6E
1487441149.22,59720,12.13,73350.3,-11.51,-12.83,-12.97,0,*68
1487441150.48,59721,12.13,73348.3,-11.51,-12.79,-12.97,0,*6C
1487441151.74,59722,12.13,73348.8,-11.51,-12.71,-12.93,0,*63
1487441153.01,59723,12.13,73346.0,-11.51,-12.71,-12.93,0,*62
1487441154.27,59724,12.13,73346.3,-11.51,-12.79,-12.93,0,*6D
1487441155.54,59725,12.13,73346.5,-11.55,-12.79,-13.07,0,*64
1487441156.8,59726,12.13,73344.3,-11.51,-12.83,-12.93,0,*6A
1487441158.04,59727,12.13,73346.8,-11.49,-12.75,-12.93,0,*6B
1487441159.3,59728,12.13,73346.8,-11.51,-12.79,-12.93,0,*61
1487441160.57,59729,12.13,73348.8,-11.51,-12.79,-12.97,0,*64
1487441161.83,59730,12.13,73348.3,-11.51,-12.79,-12.93,0,*68
1487441163.12,59731,12.13,73348.5,-11.51,-12.71,-12.83,0,*60
1487441164.41,59732,12.13,73346.5,-11.51,-12.71,-12.83,0,*63
1487441165.67,59733,12.13,73344.3,-11.51,-12.71,-12.93,0,*63
1487441166.96,59734,12.13,73346.5,-11.51,-12.79,-12.83,0,*6D
1487441168.22,59735,12.13,73344.8,-11.51,-12.79,-12.93,0,*6D
1487441169.51,59736,12.13,73350.0,-11.51,-12.79,-12.83,0,*6F
1487441170.8,59737,12.13,73350.0,-11.51,-12.71,-12.79,0,*63
1487441172.09,59738,12.13,73350.5,-11.51,-12.71,-12.79,0,*6C
1487441173.38,59739,12.13,73350.5,-11.51,-12.65,-12.83,0,*6D
1487441174.67,59740,12.13,73350.8,-11.51,-12.71,-12.79,0,*63
1487441175.94,59741,12.13,73348.0,-11.49,-12.65,-12.75,0,*62
1487441177.22,59742,12.13,73348.5,-11.51,-12.71,-12.83,0,*64
1487441178.51,59743,12.13,73344.5,-11.51,-12.65,-12.83,0,*60
1487441179.8,59744,12.13,73344.0,-11.51,-12.71,-12.83,0,*62
1487441181.06,59745,12.13,73346.5,-11.49,-12.65,-12.79,0,*6A
1487441182.35,59746,12.13,73344.5,-11.51,-12.65,-12.83,0,*65
1487441183.64,59747,12.13,73346.5,-11.51,-12.65,-12.83,0,*64
1487441184.93,59748,12.13,73346.5,-11.55,-12.71,-12.83,0,*6A
1487441186.2,59749,12.13,73350.3,-11.55,-12.71,-12.93,0,*6A
1487441187.48,59750,12.13,73346.5,-11.51,-12.71,-12.83,0,*67
1487441188.77,59751,12.13,73346.5,-11.51,-12.71,-12.83,0,*66
1487441190.06,59752,12.13,73344.3,-11.51,-12.71,-12.83,0,*65
1487441191.32,59753,12.13,73344.0,-11.51,-12.71,-12.93,0,*65
1487441192.61,59754,12.13,73344.3,-11.51,-12.71,-12.79,0,*66
1487441193.9,59755,12.13,73344.5,-11.51,-12.71,-12.83,0,*62
1487441195.19,59756,12.13,73344.0,-11.51,-12.71,-12.83,0,*61
1487441196.46,59757,12.13,73346.0,-11.51,-12.79,-12.93,0,*69
1487441197.72,59758,12.13,73344.0,-11.51,-12.79,-12.93,0,*66
1487441198.98,59759,12.13,73344.0,-11.51,-12.79,-12.93,0,*67
1487441200.25,59760,12.13,73346.3,-11.51,-12.79,-12.93,0,*6D
1487441201.51,59761,12.13,73344.3,-11.51,-12.79,-12.93,0,*6C
1487441202.78,59762,12.13,73340.3,-11.51,-12.71,-12.93,0,*67
1487441204.04,59763,12.13,73346.0,-11.51,-12.71,-12.93,0,*66
1487441205.33,59764,12.13,73344.0,-11.51,-12.79,-12.83,0,*68
1487441206.59,59765,12.13,73342.3,-11.51,-12.79,-12.97,0,*6C
1487441207.88,59766,12.13,73346.3,-11.51,-12.79,-12.83,0,*6A
1487441209.14,59767,12.13,73340.0,-11.51,-12.65,-12.93,0,*67
1487441210.43,59768,12.13,73344.8,-11.51,-12.71,-12.83,0,*6C
1487441211.69,59769,12.13,73344.3,-11.49,-12.61,-12.75,0,*6C
1487441212.98,59770,12.13,73346.8,-11.51,-12.65,-12.79,0,*65
1487441214.25,59771,12.13,73342.5,-11.49,-12.61,-12.79,0,*69
1487441215.54,59772,12.13,73342.8,-11.51,-12.65,-12.79,0,*67
1487441216.8,59773,12.13,73342.5,-11.49,-12.65,-12.75,0,*63
1487441218.09,59774,12.13,73346.8,-11.51,-12.65,-12.83,0,*64
1487441219.35,59775,12.13,73346.8,-11.51,-12.65,-12.93,0,*64
1487441220.62,59776,12.13,73344.3,-11.51,-12.65,-12.93,0,*67
1487441221.88,59777,12.13,73350.5,-11.49,-12.61,-12.79,0,*6F
1487441223.12,59778,12.13,73350.5,-11.49,-12.65,-12.89,0,*6B
1487441224.36,59779,12.13,73344.5,-11.49,-12.65,-12.89,0,*6A
1487441225.62,59780,12.13,73342.8,-11.49,-12.65,-12.79,0,*63
1487441226.89,59781,12.13,73340.5,-11.51,-12.71,-12.93,0,*6A
1487441228.17,59782,12.13,73346.0,-11.51,-12.65,-12.83,0,*6D
1487441229.41,59783,12.13,73348.5,-11.49,-12.65,-12.89,0,*6F
1487441230.65,59784,12.13,73348.0,-11.49,-12.61,-12.89,0,*6C
1487441231.91,59785,12.13,73344.8,-11.49,-12.75,-13.01,0,*69
1487441233.17,59786,12.13,73344.5,-11.51,-12.71,-13.11,0,*66
1487441234.43,59787,12.13,73346.5,-11.51,-12.71,-13.07,0,*60
1487441235.69,59788,12.13,73346.3,-11.51,-12.79,-13.07,0,*67
1487441236.95,59789,12.13,73344.5,-11.49,-12.75,-13.01,0,*65
1487441238.19,59790,12.13,73344.8,-11.49,-12.75,-12.93,0,*67
1487441239.43,59791,12.13,73346.5,-11.49,-12.65,-12.93,0,*67
1487441240.68,59792,12.13,73342.0,-11.49,-12.75,-12.93,0,*65
1487441241.94,59793,12.13,73340.3,-11.49,-12.75,-13.01,0,*6E
1487441243.22,59794,12.13,73342.0,-11.47,-12.79,-13.01,0,*6B
1487441244.49,59795,12.13,73346.3,-11.47,-12.79,-12.93,0,*60
1487441245.73,59796,12.13,73350.0,-11.49,-12.75,-13.07,0,*6D
1487441246.96,59797,12.13,73344.3,-11.47,-12.89,-13.07,0,*61
1487441248.2,59798,12.13,73346.0,-11.47,-12.89,-13.07,0,*6E
1487441249.43,59799,12.13,73344.5,-11.49,-12.79,-13.15,0,*6D
1487441250.64,59800,12.13,73342.3,-11.49,-12.89,-13.15,0,*6D
1487441251.85,59801,12.13,73342.0,-11.49,-12.93,-13.15,0,*67
1487441253.06,59802,12.13,73344.3,-11.49,-12.93,-13.15,0,*64
1487441254.27,59803,12.13,73346.8,-11.49,-12.89,-13.15,0,*6E
1487441255.48,59804,12.13,73344.0,-11.49,-12.89,-13.15,0,*69
1487441256.69,59805,12.13,73344.5,-11.49,-12.93,-13.15,0,*63
1487441257.95,59806,12.13,73344.3,-11.49,-12.79,-13.01,0,*61
1487441259.23,59807,12.13,73344.5,-11.47,-12.79,-13.01,0,*6E
1487441260.52,59808,12.13,73342.5,-11.47,-12.79,-13.01,0,*61
1487441261.79,59809,12.13,73346.8,-11.47,-12.75,-12.93,0,*66
1487441263.08,59810,12.13,73344.3,-11.47,-12.79,-13.01,0,*68
1487441264.36,59811,12.13,73346.8,-11.47,-12.79,-13.01,0,*69
1487441265.62,59812,12.13,73344.8,-11.49,-12.79,-13.01,0,*64
1487441266.88,59813,12.13,73348.0,-11.49,-12.79,-13.01,0,*65
1487441268.14,59814,12.13,73344.5,-11.47,-12.79,-12.93,0,*66
1487441269.4,59815,12.13,73342.3,-11.49,-12.79,-13.01,0,*63
1487441270.67,59816,12.13,73340.8,-11.47,-12.79,-12.93,0,*64
1487441271.94,59817,12.13,73342.5,-11.47,-12.65,-12.89,0,*63
1487441273.2,59818,12.13,73342.3,-11.47,-12.65,-12.89,0,*6C
1487441274.47,59819,12.13,73344.3,-11.47,-12.75,-12.89,0,*6C
1487441275.74,59820,12.13,73346.3,-11.47,-12.65,-12.89,0,*67
1487441277.0,59821,12.13,73344.3,-11.45,-12.61,-12.83,0,*6A
1487441278.26,59822,12.13,73344.0,-11.47,-12.65,-12.89,0,*65
1487441279.53,59823,12.13,73350.8,-11.47,-12.75,-12.89,0,*65
1487441280.82,59824,12.13,73350.3,-11.47,-12.65,-12.79,0,*6C
1487441282.09,59825,12.13,73348.5,-11.47,-12.75,-12.89,0,*63
1487441283.36,59826,12.13,73348.5,-11.47,-12.75,-12.89,0,*60
1487441284.66,59827,12.13,73346.5,-11.47,-12.65,-12.79,0,*6F
1487441285.95,59828,12.13,73344.3,-11.47,-12.65,-12.75,0,*6C
1487441287.24,59829,12.13,73344.5,-11.47,-12.65,-12.79,0,*61
1487441288.53,59830,12.13,73344.5,-11.47,-12.61,-12.75,0,*61
1487441289.82,59831,12.13,73346.5,-11.47,-12.61,-12.75,0,*60
1487441291.1,59832,12.13,73342.8,-11.47,-12.61,-12.65,0,*62
1487441292.4,59833,12.13,73342.5,-11.47,-12.65,-12.79,0,*6A
1487441293.66,59834,12.13,73346.5,-11.47,-12.65,-12.89,0,*62